Terminal Aerodrome Forecast
Issued by NWS Midland/Odessa, TX

Home | Current Version | Previous Version | Text Only | Print | Product List | Glossary On
Versions: 1 2 3 4 5 6 7 8 9 10 11 12 13 14 15 16 17 18 19 20 21 22 23 24 25 26 27 28 29 30
000
FTUS44 KMAF 170110 AAB
TAFMAF
TAF AMD
KMAF 170110Z 1701/1724 06008KT P6SM SCT200
     FM171200 05011KT 5SM BR OVC019
     FM172200 04009KT P6SM OVC035=

USA.gov is the U.S. government's official web portal to all federal, state and local government web resources and services.